EW4729 Weather Reports


Display with metric or nautical units.
time (UTC)temp
F
wind
direction
speed
MPH
gust
MPH
rain 1hr
in
rain 24hr
in
rain mn
in
humidity
%
barometer
mb
20260906212053 89 145 3.0 9.0 0.00 0.00 0.00 70 1012.6
20260906211605 89 196 3.0 9.0 0.00 0.00 0.00 70 1012.7
20260906211053 89 169 4.0 10.0 0.00 0.00 0.00 70 1012.8
20260906210553 89 127 4.0 12.0 0.00 0.00 0.00 69 1012.8
20260906210116 89 157 3.0 12.0 0.00 0.00 0.00 70 1013.0
20260906205553 89 150 3.0 11.0 0.00 0.00 0.00 71 1012.9
20260906205052 88 130 5.0 12.0 0.00 0.00 0.00 72 1013.1
20260906204608 87 188 4.0 12.0 0.00 0.00 0.00 74 1013.1
20260906204053 87 140 4.0 11.0 0.00 0.00 0.00 74 1013.0
20260906203552 86 159 4.0 13.0 0.00 0.00 0.00 73 1013.0
20260906203102 86 127 3.0 13.0 0.00 0.00 0.00 73 1013.1
20260906202554 86 82 4.0 13.0 0.00 0.00 0.00 73 1013.1
20260906202054 87 153 4.0 16.0 0.00 0.00 0.00 73 1013.2
20260906201604 87 0 5.0 16.0 0.00 0.00 0.00 72 1013.1
20260906201053 88 144 6.0 12.0 0.00 0.00 0.00 70 1013.2
20260906200553 88 74 4.0 14.0 0.00 0.00 0.00 69 1013.4
20260906200105 89 113 6.0 15.0 0.00 0.00 0.00 67 1013.5
20260906195552 90 179 5.0 15.0 0.00 0.00 0.00 67 1013.4
20260906195052 91 85 6.0 19.0 0.00 0.00 0.00 66 1013.5
20260906194558 91 174 8.0 19.0 0.00 0.00 0.00 67 1013.5
20260906194054 92 167 7.0 18.0 0.00 0.00 0.00 65 1013.6
20260906193553 94 61 3.0 17.0 0.00 0.00 0.00 62 1013.6
20260906193056 97 55 6.0 15.0 0.00 0.00 0.00 56 1013.5
20260906192610 98 191 5.0 10.0 0.00 0.00 0.00 50 1013.1
20260906192053 98 151 4.0 10.0 0.00 0.00 0.00 50 1013.0
20260906191609 98 203 4.0 10.0 0.00 0.00 0.00 49 1013.1
20260906191056 99 250 6.0 10.0 0.00 0.00 0.00 48 1013.1
20260906190553 100 218 4.0 10.0 0.00 0.00 0.00 48 1013.2
20260906190059 99 225 2.0 10.0 0.00 0.00 0.00 48 1013.2
20260906185552 99 264 3.0 10.0 0.00 0.12 0.00 49 1013.2
20260906185054 98 236 6.0 9.0 0.00 0.12 0.00 48 1013.5
20260906184558 97 200 2.0 8.0 0.00 0.12 0.00 52 1013.5
20260906184057 96 0 2.0 5.0 0.00 0.12 0.00 52 1013.5
20260906183552 96 50 1.0 6.0 0.00 0.12 0.00 53 1013.6
20260906183105 96 157 2.0 7.0 0.00 0.12 0.00 53 1013.7
20260906182558 96 203 1.0 7.0 0.00 0.12 0.00 52 1013.7
20260906182053 96 186 3.0 7.0 0.00 0.12 0.00 50 1013.7
20260906181602 96 233 3.0 5.0 0.00 0.12 0.00 52 1013.8
20260906181053 95 232 2.0 4.0 0.00 0.12 0.00 53 1013.7
20260906180557 94 182 2.0 5.0 0.00 0.12 0.00 55 1013.7
20260906180119 94 184 3.0 7.0 0.00 0.12 0.00 56 1013.9
20260906175553 94 205 3.0 7.0 0.00 0.12 0.00 56 1013.9
20260906175052 94 208 5.0 9.0 0.00 0.12 0.00 54 1013.9
20260906174605 94 225 4.0 10.0 0.00 0.12 0.00 57 1014.0
20260906174053 94 221 6.0 13.0 0.00 0.12 0.00 58 1014.0
20260906173553 93 218 8.0 13.0 0.00 0.12 0.00 60 1014.1
20260906173105 93 211 5.0 7.0 0.00 0.12 0.00 61 1014.3
20260906172552 93 217 0.0 6.0 0.00 0.12 0.00 62 1014.3
20260906172054 93 217 2.0 9.0 0.00 0.12 0.00 61 1014.5
20260906171557 93 219 1.0 9.0 0.00 0.12 0.00 61 1014.6
20260906171052 93 223 5.0 9.0 0.00 0.12 0.00 61 1014.7
20260906170552 93 213 3.0 7.0 0.00 0.12 0.00 60 1014.7
20260906170107 93 207 3.0 7.0 0.00 0.12 0.00 60 1014.7
20260906165552 93 200 3.0 7.0 0.00 0.12 0.00 59 1014.7
20260906165052 93 227 2.0 8.0 0.00 0.12 0.00 60 1014.7
20260906164605 94 252 4.0 8.0 0.00 0.12 0.00 57 1014.9
20260906164052 94 229 4.0 8.0 0.00 0.12 0.00 61 1014.9
20260906163553 94 215 1.0 8.0 0.00 0.12 0.00 63 1014.9
20260906163104 94 199 5.0 8.0 0.00 0.12 0.00 62 1015.0
20260906162553 94 99 1.0 8.0 0.00 0.12 0.00 61 1014.9
20260906162053 93 207 3.0 8.0 0.00 0.12 0.00 62 1014.9
20260906161558 93 161 4.0 7.0 0.00 0.12 0.00 63 1014.9
20260906161052 92 209 2.0 8.0 0.00 0.12 0.00 65 1015.1
20260906160553 92 0 2.0 8.0 0.00 0.12 0.00 66 1015.0
20260906160109 92 240 3.0 8.0 0.00 0.12 0.00 68 1015.0
20260906155552 91 207 2.0 7.0 0.00 0.12 0.00 69 1015.0
20260906155053 90 206 4.0 7.0 0.00 0.12 0.00 68 1015.0
20260906154609 90 213 4.0 7.0 0.00 0.12 0.00 70 1014.9
20260906154050 89 223 4.0 9.0 0.00 0.12 0.00 72 1014.9
20260906153554 89 242 3.0 9.0 0.00 0.12 0.00 72 1014.9
20260906153115 88 204 3.0 7.0 0.00 0.12 0.00 74 1015.0
20260906152551 88 173 2.0 6.0 0.00 0.12 0.00 75 1014.9
20260906152052 87 231 2.0 9.0 0.00 0.12 0.00 74 1014.9
20260906151608 87 226 3.0 9.0 0.00 0.12 0.00 74 1014.9
20260906151051 87 209 4.0 9.0 0.00 0.12 0.00 73 1014.9
20260906150552 87 209 4.0 9.0 0.00 0.12 0.00 76 1014.9
20260906150103 87 215 2.0 5.0 0.00 0.12 0.00 78 1014.9
20260906145553 86 167 0.0 6.0 0.00 0.12 0.00 81 1014.9
20260906145055 86 0 2.0 6.0 0.00 0.12 0.00 83 1014.8
20260906144601 85 307 0.0 5.0 0.00 0.12 0.00 83 1014.9
20260906144052 85 0 1.0 5.0 0.00 0.12 0.00 85 1014.9
20260906143552 84 0 1.0 4.0 0.00 0.12 0.00 86 1014.8
20260906143059 84 0 0.0 3.0 0.00 0.12 0.00 88 1014.8
20260906142552 83 0 0.0 3.0 0.00 0.12 0.00 89 1014.7
20260906142052 83 138 1.0 3.0 0.00 0.12 0.00 90 1014.7
20260906141602 82 81 0.0 5.0 0.00 0.12 0.00 91 1014.6
20260906141055 82 0 1.0 5.0 0.00 0.12 0.00 91 1014.7
20260906140555 82 82 2.0 4.0 0.00 0.12 0.00 92 1014.7
20260906140109 82 0 1.0 4.0 0.00 0.12 0.00 93 1014.7
20260906135555 81 128 1.0 3.0 0.00 0.12 0.00 93 1014.7
20260906135054 81 130 0.0 3.0 0.00 0.12 0.00 93 1014.6
20260906134614 81 0 0.0 3.0 0.00 0.12 0.00 93 1014.7
20260906134053 80 123 0.0 3.0 0.00 0.12 0.00 93 1014.7
20260906133551 80 135 0.0 4.0 0.00 0.12 0.00 93 1014.6
20260906133110 80 138 0.0 4.0 0.00 0.12 0.00 93 1014.6
20260906132553 80 140 0.0 3.0 0.00 0.12 0.00 93 1014.5
20260906132052 79 0 1.0 3.0 0.00 0.12 0.00 93 1014.5
20260906131606 79 0 0.0 2.0 0.00 0.12 0.00 93 1014.5
20260906131052 79 140 0.0 4.0 0.00 0.12 0.00 93 1014.4
20260906130552 79 0 1.0 4.0 0.00 0.12 0.00 93 1014.2
20260906130103 79 141 1.0 4.0 0.00 0.12 0.00 93 1014.3
20260906125553 78 0 0.0 0.0 0.00 0.12 0.00 93 1014.3
20260906125053 78 0 0.0 0.0 0.00 0.12 0.00 93 1014.1
20260906124603 78 0 0.0 0.0 0.00 0.12 0.00 93 1014.1
20260906124053 78 0 0.0 0.0 0.00 0.12 0.00 92 1014.0
20260906123552 78 0 0.0 0.0 0.00 0.12 0.00 92 1013.9
20260906123100 78 0 0.0 0.0 0.00 0.12 0.00 92 1013.7
20260906122552 77 0 0.0 0.0 0.00 0.12 0.00 92 1013.7
20260906122052 77 0 0.0 0.0 0.00 0.12 0.00 92 1013.7
20260906121605 77 0 0.0 0.0 0.00 0.12 0.00 92 1013.4
20260906121053 77 0 0.0 0.0 0.00 0.12 0.00 92 1013.4
20260906120553 77 0 0.0 1.0 0.00 0.12 0.00 92 1013.3
20260906115553 77 0 0.0 3.0 0.00 0.12 0.00 91 1013.2
20260906115052 77 130 0.0 3.0 0.00 0.12 0.00 91 1013.3
20260906114555 77 0 0.0 0.0 0.00 0.12 0.00 91 1013.1
20260906114053 77 0 0.0 0.0 0.00 0.12 0.00 91 1013.2
20260906113552 77 0 0.0 0.0 0.00 0.12 0.00 91 1013.0
20260906113104 77 0 0.0 0.0 0.00 0.12 0.00 91 1012.8
20260906112552 78 0 0.0 0.0 0.00 0.12 0.00 91 1012.8
20260906112052 78 0 0.0 0.0 0.00 0.12 0.00 91 1012.9
20260906111607 78 0 0.0 0.0 0.00 0.12 0.00 91 1013.0
20260906111053 78 0 0.0 0.0 0.00 0.12 0.00 91 1013.0
20260906110553 78 0 0.0 0.0 0.00 0.12 0.00 91 1012.8
20260906105553 78 0 0.0 0.0 0.00 0.12 0.00 91 1012.6
20260906105053 78 0 0.0 0.0 0.00 0.12 0.00 91 1012.4
20260906104557 78 0 0.0 0.0 0.00 0.12 0.00 90 1012.5
20260906104052 78 0 0.0 0.0 0.00 0.12 0.00 90 1012.5
20260906103552 78 0 0.0 0.0 0.00 0.12 0.00 90 1012.5
20260906103112 78 0 0.0 0.0 0.00 0.12 0.00 90 1012.5
20260906102551 78 0 0.0 0.0 0.00 0.12 0.00 90 1012.6
20260906102051 79 0 0.0 0.0 0.00 0.12 0.00 90 1012.5
20260906101601 79 0 0.0 0.0 0.00 0.12 0.00 90 1012.4
20260906101051 79 0 0.0 0.0 0.00 0.12 0.00 90 1012.4
20260906100555 79 0 0.0 0.0 0.00 0.12 0.00 90 1012.4
20260906100106 79 0 0.0 0.0 0.00 0.12 0.00 90 1012.5
20260906095554 79 0 0.0 0.0 0.00 0.12 0.00 90 1012.4
20260906095059 79 0 0.0 0.0 0.00 0.12 0.00 90 1012.4
20260906094608 79 0 0.0 0.0 0.00 0.12 0.00 90 1012.3
20260906094057 79 0 0.0 0.0 0.00 0.12 0.00 90 1012.4
20260906093555 79 0 0.0 0.0 0.00 0.12 0.00 90 1012.4
20260906093105 79 0 0.0 0.0 0.00 0.12 0.00 90 1012.4
20260906092555 79 0 0.0 0.0 0.00 0.12 0.00 90 1012.4
20260906092055 80 0 0.0 0.0 0.00 0.12 0.00 90 1012.4
20260906091600 80 0 0.0 0.0 0.00 0.12 0.00 89 1012.4
20260906091056 80 0 0.0 0.0 0.00 0.12 0.00 89 1012.4
20260906090559 80 0 0.0 0.0 0.00 0.12 0.00 89 1012.4
20260906090116 80 0 0.0 0.0 0.00 0.12 0.00 89 1012.3
20260906085554 80 0 0.0 0.0 0.00 0.12 0.00 89 1012.2
20260906085054 80 0 0.0 0.0 0.00 0.12 0.00 89 1012.1
20260906084618 80 0 0.0 0.0 0.00 0.12 0.00 89 1012.1
20260906084056 80 0 0.0 0.0 0.00 0.12 0.00 89 1012.1
20260906083556 80 0 0.0 0.0 0.00 0.12 0.00 89 1012.2
20260906083107 80 0 0.0 0.0 0.00 0.12 0.00 89 1012.2
20260906082555 80 0 0.0 0.0 0.00 0.12 0.00 89 1012.2
20260906082051 80 0 0.0 0.0 0.00 0.12 0.00 89 1012.3
20260906081601 80 0 0.0 0.0 0.00 0.12 0.00 89 1012.4
20260906081055 80 0 0.0 0.0 0.00 0.12 0.00 89 1012.4
20260906080555 80 0 0.0 2.0 0.00 0.12 0.00 89 1012.4
20260906080125 80 0 0.0 3.0 0.00 0.12 0.00 89 1012.4
20260906075554 81 211 0.0 3.0 0.00 0.12 0.00 89 1012.4
20260906075055 81 0 0.0 3.0 0.00 0.12 0.00 89 1012.4
20260906074608 81 211 1.0 3.0 0.00 0.12 0.00 88 1012.5
20260906074055 81 211 1.0 3.0 0.00 0.12 0.00 88 1012.5
20260906073557 81 211 2.0 3.0 0.00 0.12 0.00 88 1012.5
20260906073110 81 211 0.0 3.0 0.00 0.12 0.00 88 1012.5
20260906072554 81 0 0.0 4.0 0.00 0.12 0.00 88 1012.7
20260906072052 81 0 0.0 4.0 0.00 0.12 0.00 88 1012.7
20260906071602 81 210 2.0 5.0 0.00 0.12 0.00 88 1012.8
20260906071052 81 209 3.0 5.0 0.00 0.12 0.00 88 1012.9
20260906070551 81 206 3.0 4.0 0.00 0.12 0.00 87 1013.1
20260906070100 81 202 0.0 3.0 0.00 0.12 0.00 87 1013.1
20260906065553 81 0 0.0 3.0 0.00 0.12 0.00 87 1013.1
20260906065053 81 202 1.0 3.0 0.00 0.12 0.00 87 1013.1
20260906064607 81 201 1.0 4.0 0.00 0.12 0.00 87 1013.2
20260906064053 81 201 1.0 4.0 0.00 0.12 0.00 87 1013.3
20260906063552 81 205 0.0 4.0 0.00 0.12 0.00 87 1013.3
20260906063105 81 205 1.0 5.0 0.00 0.12 0.00 86 1013.3
20260906062553 81 205 2.0 5.0 0.00 0.12 0.00 86 1013.3
20260906062052 81 201 2.0 5.0 0.00 0.12 0.00 86 1013.2
20260906061605 81 199 2.0 4.0 0.00 0.12 0.00 86 1013.3
20260906061054 81 196 2.0 4.0 0.00 0.12 0.00 86 1013.4
20260906060554 82 196 1.0 4.0 0.00 0.12 0.00 85 1013.4
20260906060104 82 196 1.0 4.0 0.00 0.12 0.00 85 1013.4
20260906055552 82 194 1.0 4.0 0.00 0.12 0.00 85 1013.4
20260906055052 82 194 2.0 4.0 0.00 0.12 0.00 85 1013.4
20260906054601 82 193 2.0 4.0 0.00 0.12 0.00 85 1013.4
20260906054052 82 191 2.0 4.0 0.00 0.12 0.00 85 1013.2
20260906053553 82 189 1.0 6.0 0.00 0.12 0.00 85 1013.3
20260906053058 82 188 2.0 7.0 0.00 0.12 0.00 85 1013.2
20260906052556 82 188 3.0 7.0 0.00 0.12 0.00 85 1013.2
20260906052052 82 199 4.0 6.0 0.00 0.12 0.00 84 1013.2
20260906051607 82 200 3.0 6.0 0.00 0.12 0.00 84 1013.2
20260906051052 82 189 3.0 6.0 0.00 0.12 0.00 84 1013.4
20260906050552 82 183 2.0 6.0 0.00 0.12 0.00 84 1013.4
20260906050110 82 181 3.0 7.0 0.00 0.12 0.00 84 1013.5
20260906045556 82 191 2.0 7.0 0.00 0.12 0.12 84 1013.5
20260906045052 83 187 3.0 7.0 0.00 0.12 0.12 83 1013.5
20260906044559 83 180 2.0 7.0 0.00 0.12 0.12 83 1013.4
20260906044056 83 171 3.0 7.0 0.00 0.12 0.12 83 1013.5
20260906043552 83 157 2.0 6.0 0.00 0.12 0.12 83 1013.5
20260906043104 83 168 2.0 7.0 0.00 0.12 0.12 83 1013.5
20260906042552 83 196 3.0 10.0 0.00 0.12 0.12 83 1013.4
20260906042052 83 192 4.0 11.0 0.00 0.12 0.12 83 1013.4
20260906041605 83 194 4.0 11.0 0.00 0.12 0.12 82 1013.3
20260906041052 83 180 3.0 8.0 0.00 0.12 0.12 82 1013.3
20260906040552 83 192 4.0 8.0 0.00 0.12 0.12 82 1013.3
20260906035552 83 200 4.0 10.0 0.00 0.12 0.12 82 1013.4
20260906035058 83 173 3.0 9.0 0.00 0.12 0.12 81 1013.4
20260906034639 83 186 3.0 9.0 0.00 0.12 0.12 81 1013.5
20260906034051 84 181 3.0 7.0 0.00 0.12 0.12 81 1013.4
20260906033551 84 184 2.0 4.0 0.00 0.12 0.12 80 1013.4
20260906033103 84 184 2.0 4.0 0.00 0.12 0.12 80 1013.4
20260906032552 84 0 1.0 6.0 0.00 0.12 0.12 80 1013.3
20260906032052 84 177 1.0 7.0 0.00 0.12 0.12 79 1013.3
20260906031605 84 175 2.0 7.0 0.00 0.12 0.12 79 1013.2
20260906031052 84 169 2.0 9.0 0.00 0.12 0.12 79 1013.1
20260906030551 84 170 1.0 9.0 0.00 0.12 0.12 78 1013.0
20260906025553 85 156 1.0 6.0 0.00 0.12 0.12 77 1013.1
20260906025057 85 0 0.0 4.0 0.00 0.12 0.12 76 1012.9
20260906024602 85 0 0.0 0.0 0.00 0.12 0.12 76 1013.0
20260906024054 85 0 0.0 0.0 0.00 0.12 0.12 76 1012.9
20260906023552 85 0 0.0 3.0 0.00 0.12 0.12 75 1012.8
20260906023102 86 0 0.0 3.0 0.00 0.12 0.12 75 1012.8
20260906022552 86 0 0.0 3.0 0.00 0.12 0.12 75 1012.7
20260906022055 86 0 0.0 3.0 0.00 0.12 0.12 74 1012.5
20260906021611 86 0 0.0 2.0 0.00 0.12 0.12 74 1012.4
20260906021056 86 0 0.0 2.0 0.00 0.12 0.12 73 1012.2
20260906020552 87 0 0.0 3.0 0.00 0.12 0.12 73 1012.3
20260906020107 87 0 0.0 3.0 0.00 0.12 0.12 72 1012.1
20260906015552 87 0 0.0 2.0 0.00 0.12 0.12 72 1012.0
20260906015051 87 0 0.0 2.0 0.00 0.12 0.12 71 1011.9
20260906014603 87 0 0.0 0.0 0.00 0.12 0.12 71 1011.8
20260906014053 88 0 0.0 0.0 0.00 0.12 0.12 70 1011.9
20260906013555 88 0 0.0 2.0 0.00 0.12 0.12 70 1011.6
20260906013106 88 0 0.0 3.0 0.00 0.12 0.12 70 1011.5
20260906012551 88 0 0.0 6.0 0.00 0.12 0.12 69 1011.5
20260906012052 88 149 0.0 6.0 0.00 0.12 0.12 69 1011.4
20260906011603 88 163 1.0 9.0 0.00 0.12 0.12 69 1011.3
20260906011054 88 146 2.0 9.0 0.00 0.12 0.12 68 1011.3
20260906010552 89 155 2.0 7.0 0.00 0.12 0.12 68 1011.3
20260906010107 89 167 2.0 7.0 0.00 0.12 0.12 68 1011.3
20260906005552 89 144 4.0 7.0 0.00 0.12 0.12 67 1011.3
20260906005055 89 141 2.0 12.0 0.00 0.12 0.12 67 1011.3
20260906004603 89 143 5.0 12.0 0.00 0.12 0.12 67 1011.3
20260906004053 90 168 3.0 11.0 0.00 0.12 0.12 66 1011.4
20260906003552 90 173 4.0 11.0 0.00 0.12 0.12 66 1011.6
20260906003059 90 175 3.0 9.0 0.00 0.12 0.12 66 1011.5
20260906002555 91 147 1.0 9.0 0.00 0.12 0.12 65 1011.6
20260906002054 91 120 2.0 9.0 0.00 0.12 0.12 65 1011.5
20260906001605 91 65 2.0 10.0 0.00 0.12 0.12 64 1011.5
20260906001056 91 0 3.0 11.0 0.00 0.12 0.12 64 1011.5
20260906000552 92 121 3.0 11.0 0.00 0.12 0.12 64 1011.5
20260906000112 92 148 4.0 11.0 0.00 0.12 0.12 63 1011.5
20260905235552 92 157 3.0 12.0 0.00 0.12 0.12 63 1011.5
20260905235052 93 166 4.0 12.0 0.00 0.12 0.12 62 1011.5
20260905234621 93 155 3.0 12.0 0.00 0.12 0.12 62 1011.4
20260905234053 93 117 4.0 12.0 0.00 0.12 0.12 61 1011.3
20260905233552 93 157 5.0 12.0 0.00 0.12 0.12 60 1011.3
20260905233056 93 186 4.0 10.0 0.00 0.12 0.12 59 1011.3
20260905232552 93 125 3.0 12.0 0.00 0.12 0.12 58 1011.3
20260905232052 93 159 6.0 12.0 0.00 0.12 0.12 57 1011.2
20260905231607 94 154 4.0 12.0 0.00 0.12 0.12 57 1011.2
20260905231052 94 101 4.0 10.0 0.00 0.12 0.12 56 1011.2
20260905230552 95 150 5.0 10.0 0.00 0.12 0.12 56 1011.2
20260905230104 95 84 4.0 12.0 0.00 0.12 0.12 55 1011.0
20260905225552 96 143 4.0 12.0 0.00 0.12 0.12 54 1010.9
20260905225052 96 142 6.0 12.0 0.00 0.12 0.12 53 1010.9
20260905224617 97 144 2.0 11.0 0.00 0.12 0.12 52 1010.9
20260905224052 97 138 4.0 10.0 0.00 0.12 0.12 51 1010.9
20260905223552 97 76 2.0 7.0 0.00 0.12 0.12 50 1010.8
20260905223106 97 102 3.0 7.0 0.00 0.12 0.12 49 1010.9
20260905222554 97 0 1.0 6.0 0.00 0.12 0.12 51 1010.9
20260905222052 97 132 1.0 7.0 0.00 0.12 0.12 52 1010.9
20260905221601 97 148 2.0 9.0 0.00 0.12 0.12 51 1010.8
20260905221056 97 108 2.0 9.0 0.00 0.12 0.12 51 1010.9
20260905220553 97 161 2.0 9.0 0.00 0.12 0.12 52 1010.9
20260905215552 98 150 4.0 12.0 0.00 0.12 0.12 50 1011.0
20260905215052 98 153 2.0 10.0 0.00 0.12 0.12 51 1010.9
20260905214605 98 161 3.0 10.0 0.00 0.12 0.12 52 1011.1
20260905214143 98 150 1.0 9.0 0.00 0.12 0.12 51 1011.1
20260905213551 97 92 3.0 11.0 0.00 0.12 0.12 52 1011.2
20260905213101 97 94 5.0 11.0 0.00 0.12 0.12 52 1011.2
20260905212552 98 95 3.0 9.0 0.00 0.12 0.12 51 1011.2